Location: West Chester
(39.9610°N, 75.6060°W)
Time: 20:59:31
(UTC-04:00)

ARIANE 6 FM1 Upper Stage - Pass Details

Date: 20 September 2024
Orbit: 563 x 594 km, 62.0° (Epoch: 11 October)

Event Time Altitude Azimuth Distance (km) Brightness Sun altitude
Exits shadow 04:56:39 - 330° (NNW) 2,307 5.7 -21.8°
Reaches altitude 10° 04:57:36 10° 332° (NNW) 1,938 5.3 -21.6°
Maximum altitude 05:01:55 55° 51° (NE) 718 3.4 -20.8°
Drops below altitude 10° 05:06:13 10° 130° (SE) 1,930 5.8 -20.1°
Sets 05:08:30 0° 134° (SE) 2,828 6.6 -19.7°
